User: anonymous   Login
Location: Unspecified
(0.0000°N, 0.0000°E)
Time: 18:45:14
(UTC+00:00)
Language:

Aussat K2 - Orbit

View from above orbital plane
View from above orbital plane
View from above satellite
View from above satellite

Ground track
Ground track

The orbit data is extracted from the following two-line orbital elements,

1 16275U 85109C   16271.98145338 -.00000309  00000-0  00000+0 0  9994
2 16275  15.1417  11.3214 0007729 216.6865  92.6290  0.99949906102605
Epoch (UTC): 27 September 2016 23:33:17
Eccentricity: 0.0007729
inclination: 15.1417°
perigee height: 35844 km
apogee height: 35909 km
right ascension of ascending node: 11.3214°
argument of perigee: 216.6865°
revolutions per day: 0.99949906
mean anomaly at epoch: 92.6290°
orbit number at epoch: 10260

The dashed part of the orbit path shows where the satellite is in the earth's shadow,  

DLR